Stations météo

réclame
Mon MeteoGroup
Baltasound, Grande-Bretagne (3002): Température de l'air & dewpoint: 13.06.2018 19:00:00 - 19.06.2018 19:00:00 (BST)Baltasound, Grande-Bretagne (3002): Température de l'air -20cm: 13.06.2018 19:00:00 - 19.06.2018 19:00:00 (BST)Baltasound, Grande-Bretagne (3002): Vitesse du vent & gusts: 13.06.2018 19:00:00 - 19.06.2018 19:00:00 (BST)Baltasound, Grande-Bretagne (3002): Direction du vent: 13.06.2018 19:00:00 - 19.06.2018 19:00:00 (BST)Baltasound, Grande-Bretagne (3002): reduced air pressure: 13.06.2018 19:00:00 - 19.06.2018 19:00:00 (BST)Baltasound, Grande-Bretagne (3002): visibility: 13.06.2018 19:00:00 - 19.06.2018 19:00:00 (BST)Baltasound, Grande-Bretagne (3002): Quantités de précipitations: 13.06.2018 19:00:00 - 19.06.2018 19:00:00 (BST)
Date & Time tt [°C] td [°C] tt -20cm [°C] ff [km/h] ff [knt] fx [km/h] fx [knt] dd ppp [hPa] vv [km] rr [mm]
19.06.2018 19:00:00 11,3 5,9 - 48 26 68 37 W 1009,8 11 0,0
19.06.2018 18:00:00 12,0 6,2 - 52 28 72 39 W 1009,4 20 0,0
19.06.2018 17:00:00 11,2 6,1 - 48 26 76 41 WSW 1008,9 16 0,0
19.06.2018 16:00:00 12,5 5,2 - 59 32 83 45 W 1008,4 12 0,0
19.06.2018 15:00:00 12,2 4,7 - 57 31 76 41 W 1008,0 13 0,0
19.06.2018 14:00:00 11,1 5,8 - 54 29 74 40 W 1007,2 8 0,0
19.06.2018 13:00:00 12,4 6,5 - 55 30 80 43 W 1006,5 13 0,0
19.06.2018 12:00:00 11,5 5,8 - 57 31 87 47 W 1005,4 13 0,0
19.06.2018 11:00:00 10,2 6,6 - 54 29 83 45 W 1004,1 8 0,0
19.06.2018 10:00:00 10,5 6,5 12,9 57 31 80 43 W 1003,0 9 0,0
19.06.2018 09:00:00 10,4 6,7 - 54 29 80 43 W 1002,2 9 0,0
19.06.2018 08:00:00 10,3 7,1 - 59 32 83 45 W 1000,9 10 0,0
19.06.2018 07:00:00 - - - - - - - - - - -
19.06.2018 06:00:00 9,7 8,0 - 63 34 89 48 W 998,4 8 0,0
19.06.2018 05:00:00 9,8 7,6 - 63 34 87 47 WSW 997,6 2,7 0,2
19.06.2018 04:00:00 10,1 7,4 - 55 30 78 42 WSW 997,2 8 0,0
19.06.2018 03:00:00 9,9 8,4 - 57 31 81 44 WSW 996,7 7 1,2
19.06.2018 02:00:00 9,8 8,2 - 52 28 74 40 WSW 996,5 6 1,0
19.06.2018 01:00:00 9,6 7,4 - 50 27 70 38 SW 996,5 5 -
19.06.2018 00:00:00 9,4 6,2 - 41 22 65 35 SW 997,2 16 0,0
18.06.2018 23:00:00 9,9 7,4 - 39 21 57 31 SW 997,8 10 0,2
18.06.2018 22:00:00 9,8 6,9 - 41 22 65 35 SW 998,3 13 0,0
18.06.2018 21:00:00 10,1 6,9 - 44 24 68 37 SW 998,4 14 0,2
18.06.2018 20:00:00 9,6 7,5 - 48 26 72 39 SW 998,6 8 0,2
18.06.2018 19:00:00 10,8 7,1 - 44 24 72 39 SW 998,8 17 0,0
18.06.2018 18:00:00 10,4 8,3 - 44 24 67 36 SW 999,5 13 0,0
18.06.2018 17:00:00 11,9 7,2 - 54 29 74 40 SW 1000,0 15 0,0
18.06.2018 16:00:00 11,5 8,0 - 50 27 72 39 SW 1000,6 15 0,4
18.06.2018 15:00:00 12,2 7,0 - 50 27 72 39 SW 1000,8 13 0,0
18.06.2018 14:00:00 13,1 7,0 - 54 29 78 42 SW 1000,8 23 0,0
18.06.2018 13:00:00 14,4 7,7 - 54 29 85 46 SW 1000,4 14 0,0
18.06.2018 12:00:00 14,5 7,7 - 61 33 83 45 SW 999,7 10 0,0
18.06.2018 11:00:00 14,2 8,2 - 65 35 80 43 SW 999,6 12 0,0
18.06.2018 10:00:00 13,2 7,8 13,2 55 30 70 38 SW 999,7 12 0,0
18.06.2018 09:00:00 12,9 8,1 - 46 25 65 35 SW 1000,1 15 0,0
18.06.2018 08:00:00 12,2 7,7 - 42 23 59 32 WSW 1000,1 13 0,0
18.06.2018 07:00:00 11,8 9,3 - 31 17 - - SW 999,9 13 0,0
18.06.2018 06:00:00 11,1 9,5 - 28 15 - - SW 999,9 18 0,0
18.06.2018 05:00:00 11,2 10,1 - 34 18 50 27 WSW 999,5 35 0,0
18.06.2018 04:00:00 11,1 10,7 - 26 14 - - SSW 999,6 4,8 0,0
18.06.2018 03:00:00 11,0 10,4 - 22 12 - - S 1000,3 9 0,0
18.06.2018 02:00:00 10,8 10,2 - 24 13 - - SSE 1001,1 11 0,0
18.06.2018 01:00:00 10,6 9,9 - 21 11 - - SSE 1002,2 15 0,0
18.06.2018 00:00:00 10,4 9,8 - 21 11 - - SSE 1003,3 21 0,0
17.06.2018 23:00:00 10,5 9,5 - 21 11 - - SSE 1003,8 30 0,0
17.06.2018 22:00:00 10,6 9,0 - 22 12 - - S 1004,6 40 0,0
17.06.2018 21:00:00 11,8 10,2 - 13 7 - - SSE 1004,8 24 0,0
17.06.2018 20:00:00 12,1 10,3 - 11 6 - - SSE 1005,0 30 0,0
17.06.2018 19:00:00 12,6 10,6 - 15 8 - - S 1005,4 10 0,0
17.06.2018 18:00:00 12,9 10,7 - 15 8 - - SSE 1005,6 29 0,0
17.06.2018 17:00:00 13,5 11,4 - 8 4 - - E 1005,5 23 0,0
17.06.2018 16:00:00 12,9 10,4 - 11 6 - - ESE 1006,3 27 0,0
17.06.2018 15:00:00 13,3 10,2 - 16 9 - - E 1006,5 30 0,0
17.06.2018 14:00:00 12,9 10,0 - 15 8 - - E 1006,6 27 0,0
17.06.2018 13:00:00 13,4 10,2 - 15 8 - - E 1006,8 35 0,0
17.06.2018 12:00:00 12,6 9,7 - 15 8 - - E 1007,0 20 0,0
17.06.2018 11:00:00 12,9 9,5 - 16 9 - - ESE 1007,2 27 0,0
17.06.2018 10:00:00 12,3 9,6 12,7 15 8 - - ESE 1007,4 40 0,0
17.06.2018 09:00:00 12,7 10,2 - 16 9 - - ESE 1007,2 27 0,0
17.06.2018 08:00:00 11,7 11,0 - 13 7 - - E 1007,3 23 0,0
17.06.2018 07:00:00 11,2 11,1 - 21 11 - - E 1007,1 9 0,0
17.06.2018 06:00:00 10,9 10,9 - 16 9 - - E 1007,4 8 0,0
17.06.2018 05:00:00 10,4 10,4 - 11 6 - - E 1008,1 7 0,0
17.06.2018 04:00:00 9,6 9,6 - 8 4 - - E 1008,5 5 0,0
17.06.2018 03:00:00 8,3 8,2 - 0 0 - - N 1008,7 8 0,0
17.06.2018 02:00:00 7,8 7,8 - 0 0 - - N 1008,9 7 0,0
17.06.2018 01:00:00 7,8 7,7 - 0 0 - - N 1009,3 7 0,0
17.06.2018 00:00:00 7,0 6,4 - 4 2 - - SE 1009,4 10 0,0
16.06.2018 23:00:00 9,2 8,9 - 9 5 - - SE 1009,6 8 0,0
16.06.2018 22:00:00 10,0 9,4 - 11 6 - - SE 1009,5 11 0,0
16.06.2018 21:00:00 10,8 9,7 - 11 6 - - SSE 1009,9 13 0,0
16.06.2018 20:00:00 12,0 10,2 - 21 11 - - SSE 1010,0 26 0,0
16.06.2018 19:00:00 12,3 10,1 - 22 12 - - SSE 1010,0 22 0,0
16.06.2018 18:00:00 12,8 10,2 - 24 13 - - SSE 1009,9 20 0,0
16.06.2018 17:00:00 13,2 10,3 - 22 12 - - SE 1010,2 40 0,0
16.06.2018 16:00:00 13,8 10,9 - 22 12 - - SE 1010,3 26 0,0
16.06.2018 15:00:00 13,6 10,5 - 22 12 - - SE 1010,4 19 0,0
16.06.2018 14:00:00 13,4 10,3 - 24 13 - - SE 1010,4 19 0,0
16.06.2018 13:00:00 13,1 10,1 - 21 11 - - SE 1010,9 12 0,0
16.06.2018 12:00:00 12,6 10,0 - 24 13 - - SE 1011,0 20 0,0
16.06.2018 11:00:00 13,0 10,0 - 16 9 - - SE 1010,9 45 0,0
16.06.2018 10:00:00 12,7 9,6 12,5 18 10 - - SE 1010,9 35 0,0
16.06.2018 09:00:00 12,2 9,4 - 18 10 - - SSE 1010,7 45 0,0
16.06.2018 08:00:00 11,5 9,1 - 21 11 - - SSE 1010,5 26 0,0
16.06.2018 07:00:00 10,8 8,6 - 13 7 - - S 1010,3 30 0,0
16.06.2018 06:00:00 10,1 9,0 - 8 4 - - SSW 1010,1 30 0,0
16.06.2018 05:00:00 8,5 7,8 - 16 9 - - SSW 1009,9 30 0,0
16.06.2018 04:00:00 6,1 5,3 - 9 5 - - SSW 1009,9 22 0,0
16.06.2018 03:00:00 6,8 6,1 - 13 7 - - SW 1009,8 23 0,0
16.06.2018 02:00:00 7,5 6,9 - 16 9 - - SW 1009,8 14 0,0
16.06.2018 01:00:00 8,8 7,9 - 18 10 - - SW 1009,6 15 0,0
16.06.2018 00:00:00 8,8 8,0 - 18 10 - - SSW 1009,2 13 0,0
15.06.2018 23:00:00 8,8 7,7 - 18 10 - - SSW 1008,9 14 0,0
15.06.2018 22:00:00 10,0 7,9 - 22 12 - - SW 1008,5 17 0,0
15.06.2018 21:00:00 11,5 7,7 - 26 14 - - SW 1007,9 19 0,0
15.06.2018 20:00:00 12,1 6,6 - 29 16 46 25 WSW 1007,5 35 0,0
15.06.2018 19:00:00 12,2 6,6 - 35 19 50 27 WSW 1007,0 18 0,0
15.06.2018 18:00:00 12,5 6,5 - 37 20 52 28 WSW 1006,5 17 0,0
15.06.2018 17:00:00 13,3 7,5 - 41 22 57 31 WSW 1006,0 27 0,0
15.06.2018 16:00:00 12,3 6,9 - 41 22 61 33 WSW 1005,6 23 0,0
15.06.2018 15:00:00 13,1 6,4 - 41 22 59 32 WSW 1005,0 40 0,0
15.06.2018 14:00:00 13,3 6,8 - 46 25 63 34 WSW 1004,2 23 0,0
15.06.2018 13:00:00 13,3 7,1 - 50 27 70 38 WSW 1003,3 18 0,0
15.06.2018 12:00:00 13,0 7,3 - 48 26 68 37 WSW 1002,3 16 0,0
15.06.2018 11:00:00 12,9 6,9 - 52 28 67 36 WSW 1001,5 12 0,0
15.06.2018 10:00:00 12,3 6,7 12,4 50 27 70 38 WSW 1000,8 19 0,0
15.06.2018 09:00:00 11,5 6,7 - 46 25 68 37 WSW 1000,0 15 0,0
15.06.2018 08:00:00 11,0 7,3 - 44 24 67 36 SW 999,1 16 0,0
15.06.2018 07:00:00 10,8 6,9 - 46 25 70 38 WSW 998,2 15 0,0
15.06.2018 06:00:00 10,1 6,9 - 44 24 68 37 WSW 997,6 12 0,6
15.06.2018 05:00:00 9,7 7,0 - 46 25 72 39 WSW 996,8 10 0,4
15.06.2018 04:00:00 10,1 6,4 - 52 28 70 38 WSW 996,3 12 0,0
15.06.2018 03:00:00 10,3 6,3 - 52 28 78 42 WSW 995,6 11 0,0
15.06.2018 02:00:00 9,8 6,2 - 54 29 78 42 WSW 994,4 12 0,0
15.06.2018 01:00:00 10,3 6,3 - 57 31 81 44 WSW 993,3 10 0,0
15.06.2018 00:00:00 10,4 6,5 - 61 33 85 46 WSW 991,8 8 0,0
14.06.2018 23:00:00 10,4 6,8 - 65 35 91 49 WSW 990,6 10 0,0
14.06.2018 22:00:00 10,4 6,9 - 68 37 93 50 WSW 989,4 9 0,0
14.06.2018 21:00:00 9,7 8,2 - 63 34 94 51 WSW 988,4 6 0,0
14.06.2018 20:00:00 10,2 8,1 - 65 35 93 50 WSW 986,9 5 0,0
14.06.2018 19:00:00 10,2 8,6 - 68 37 91 49 WSW 984,9 4,4 0,0
14.06.2018 18:00:00 10,9 8,2 - 63 34 89 48 WSW 983,3 8 0,0
14.06.2018 17:00:00 11,2 8,6 - 67 36 87 47 WSW 981,7 9 0,0
14.06.2018 16:00:00 12,7 9,5 - 61 33 80 43 WSW 980,1 13 0,0
14.06.2018 15:00:00 12,2 9,8 - 55 30 78 42 WSW 978,9 12 0,0
14.06.2018 14:00:00 12,7 11,2 - 48 26 65 35 SW 977,9 18 0,2
14.06.2018 13:00:00 13,3 12,5 - 37 20 55 30 S 977,4 12 0,0
14.06.2018 12:00:00 14,7 12,8 - 39 21 57 31 S 977,5 11 0,0
14.06.2018 11:00:00 13,2 12,2 - 34 18 48 26 S 978,5 8 0,2
14.06.2018 10:00:00 12,6 12,1 12,7 31 17 - - S 979,6 7 0,4
14.06.2018 09:00:00 12,1 11,6 - 31 17 46 25 S 980,7 7 0,4
14.06.2018 08:00:00 12,3 11,8 - 35 19 50 27 S 981,7 6 0,0
14.06.2018 07:00:00 11,9 11,6 - 39 21 55 30 S 982,6 7 0,0
14.06.2018 06:00:00 11,6 11,3 - 37 20 55 30 S 984,0 5 0,0
14.06.2018 05:00:00 11,0 10,9 - 34 18 46 25 SSE 985,9 2,5 0,8
14.06.2018 04:00:00 10,9 10,8 - 29 16 - - SSE 988,1 4,0 2,2
14.06.2018 03:00:00 10,8 10,7 - 31 17 - - SSE 990,5 4,6 2,8
14.06.2018 02:00:00 10,6 10,4 - 29 16 - - SE 992,7 5 1,4
14.06.2018 01:00:00 10,5 10,3 - 29 16 - - SE 994,9 6 0,6
14.06.2018 00:00:00 10,4 10,0 - 28 15 - - SSE 996,8 7 0,4
13.06.2018 23:00:00 10,5 10,0 - 28 15 - - SSE 998,8 9 0,0
13.06.2018 22:00:00 10,5 10,0 - 28 15 - - S 1000,2 11 0,2
13.06.2018 21:00:00 10,3 9,8 - 29 16 - - SSE 1001,5 8 0,2
13.06.2018 20:00:00 10,1 9,5 - 26 14 - - SSE 1002,9 12 0,6
13.06.2018 19:00:00 9,9 8,8 - 26 14 - - SSE 1004,3 11 0,2

tt = Température de l'air
td = dewpoint
tt -20cm = Température de l'air -20cm
ff = Vitesse du vent
fx = gusts
dd = Direction du vent
ppp = reduced air pressure
vv = visibility
rr = Quantités de précipitations

stations d'obs. à proximité